Date,TemperatureHighF,TemperatureAvgF,TemperatureLowF,DewpointHighF,DewpointAvgF,DewpointLowF,HumidityHigh,HumidityAvg,HumidityLow,PressureMaxIn,PressureMinIn,WindSpeedMaxMPH,WindSpeedAvgMPH,GustSpeedMaxMPH,PrecipitationSumIn
2013-1-1,44,39,32,37,31,20,100,75,38,0.00,40.00,0,0,0,0.00
2013-1-2,48,42,37,32,26,7,72,54,20,0.00,40.00,0,0,0,0.00
2013-1-3,49,45,42,39,30,18,81,57,31,0.00,40.00,0,0,0,0.00
2013-1-4,48,45,41,34,29,23,64,53,46,0.00,40.00,0,0,0,0.00
2013-1-5,48,44,38,44,40,32,100,86,59,0.00,40.00,0,0,1,0.26
2013-1-6,42,39,37,41,39,37,100,100,93,0.00,40.00,1,0,3,0.29
2013-1-7,54,46,40,46,41,36,100,83,66,0.00,40.00,0,0,0,0.01
2013-1-8,53,49,44,45,40,34,90,72,50,0.00,40.00,0,0,0,0.00
2013-1-9,54,44,36,48,39,31,100,84,42,0.00,40.00,0,0,0,0.03
2013-1-10,43,37,33,33,30,27,89,76,55,0.00,40.00,0,0,0,0.03
2013-1-11,46,38,33,38,31,27,100,77,55,0.00,40.00,0,0,0,0.00
2013-1-12,45,37,32,35,24,18,100,60,39,0.00,40.00,0,0,0,0.00
2013-1-13,41,36,31,22,14,8,64,41,31,0.00,40.00,0,0,0,0.00
2013-1-14,41,36,31,18,11,6,40,34,29,0.00,40.00,0,0,0,0.00
2013-1-15,44,40,38,29,21,16,59,46,37,0.00,40.00,0,0,1,0.00
2013-1-16,49,44,39,32,24,18,59,44,30,0.00,40.00,0,0,0,0.00
2013-1-17,54,50,43,30,23,18,44,35,26,0.00,40.00,0,0,0,0.00
2013-1-18,54,51,46,32,24,16,51,36,24,0.00,40.00,0,0,0,0.00
2013-1-19,53,51,47,32,23,14,47,35,22,0.00,40.00,0,0,0,0.00
2013-1-20,56,52,46,30,22,11,43,31,18,0.00,40.00,0,0,0,0.00
2013-1-21,60,52,45,37,28,9,55,42,14,0.00,40.00,0,0,0,0.00
2013-1-22,62,54,49,44,30,18,58,40,23,0.00,40.00,0,0,0,0.00
2013-1-23,58,51,44,49,38,17,100,71,21,0.00,40.00,0,0,0,0.11
2013-1-24,51,48,44,50,48,44,100,99,96,0.00,40.00,0,0,0,0.05
2013-1-25,61,52,49,57,51,49,100,95,82,0.00,40.00,0,0,0,0.01
2013-1-26,53,47,39,51,43,35,100,89,51,0.00,40.00,0,0,0,0.01
2013-1-27,50,41,35,38,33,27,100,76,43,0.00,40.00,0,0,0,0.01
2013-1-28,51,42,36,40,35,32,98,78,52,0.00,40.00,0,0,0,0.00
2013-1-29,55,46,38,40,37,34,91,73,50,0.00,40.00,0,0,0,0.00
2013-1-30,58,53,48,40,36,31,61,53,40,0.00,40.00,0,0,2,0.00
2013-1-31,56,52,45,44,41,38,83,68,56,0.00,40.00,0,0,0,0.00
2013-2-1,56,52,46,45,41,37,87,69,52,0.00,40.00,12,4,16,0.00
2013-2-2,56,52,45,48,45,37,100,78,52,0.00,40.00,10,5,13,0.00
2013-2-3,57,47,39,46,43,39,100,86,64,0.00,40.00,12,7,17,0.00
2013-2-4,63,54,42,52,44,28,81,72,37,0.00,40.00,8,4,12,0.00
2013-2-5,49,43,39,45,42,36,100,95,79,0.00,40.00,19,14,25,0.00
2013-2-6,57,45,39,44,39,36,100,82,53,0.00,40.00,16,9,20,0.00
2013-2-7,50,42,37,46,39,30,100,92,56,0.00,40.00,18,13,26,0.07
2013-2-8,48,40,35,39,35,23,100,85,45,0.00,40.00,17,10,22,0.05
2013-2-9,50,44,39,27,23,20,56,44,33,0.00,40.00,17,8,23,0.01
2013-2-10,52,46,41,34,30,19,60,52,37,0.00,40.00,19,10,25,0.00
2013-2-11,55,48,41,29,24,20,46,39,31,0.00,40.00,21,12,26,0.00
2013-2-12,54,49,45,39,32,26,68,51,41,0.00,40.00,10,6,15,0.00
2013-2-13,61,52,46,41,34,29,64,52,40,0.00,40.00,15,8,20,0.00
2013-2-14,60,55,49,39,36,31,60,49,36,0.00,40.00,25,18,34,0.00
2013-2-15,61,56,51,41,35,28,60,46,34,0.00,40.00,23,14,30,0.00
2013-2-16,62,56,50,46,40,28,75,56,30,0.00,40.00,16,10,21,0.00
2013-2-17,58,51,45,41,36,33,81,59,39,0.00,40.00,18,8,27,0.00
2013-2-18,47,42,38,41,37,31,100,84,53,0.00,40.00,27,18,38,0.00
2013-2-19,41,37,33,41,36,30,100,95,80,0.00,40.00,24,17,38,0.41
2013-2-20,55,42,32,36,32,29,97,71,42,0.00,40.00,17,11,27,0.01
2013-2-21,54,44,36,35,31,26,90,62,35,0.00,40.00,22,11,31,0.00
2013-2-22,61,49,43,42,34,29,91,57,39,0.00,40.00,20,10,25,0.00
2013-2-23,53,45,39,43,35,27,100,73,40,0.00,40.00,19,13,25,0.00
2013-2-24,54,46,39,27,19,16,56,35,23,0.00,40.00,17,11,26,0.00
2013-2-25,56,50,41,40,32,19,80,51,30,0.00,40.00,15,8,19,0.00
2013-2-26,60,51,44,35,24,17,68,38,20,0.00,40.00,24,12,29,0.00
2013-2-27,66,57,50,40,29,13,66,37,18,0.00,40.00,12,7,19,0.00
2013-2-28,67,55,48,51,46,39,85,72,56,0.00,40.00,11,8,19,0.00
2013-3-1,65,59,54,50,44,34,80,58,38,0.00,40.00,13,9,21,0.00
2013-3-2,68,60,51,53,45,34,75,59,38,0.00,40.00,17,8,24,0.00
2013-3-3,62,50,41,48,44,41,100,80,56,0.00,40.00,17,14,26,0.00
2013-3-4,56,45,40,51,42,26,100,91,44,0.00,40.00,17,10,24,0.01
2013-3-5,52,44,37,43,39,37,100,86,65,0.00,40.00,42,18,55,0.07
2013-3-6,49,43,39,43,40,36,100,89,62,0.00,40.00,42,19,56,0.17
2013-3-7,51,44,39,41,38,35,100,83,54,0.00,40.00,12,7,20,0.12
2013-3-8,57,46,40,43,38,32,100,76,57,0.00,40.00,18,13,24,0.12
2013-3-9,60,49,39,40,36,29,100,66,35,0.00,40.00,14,10,21,0.00
2013-3-10,63,56,48,36,31,24,49,39,29,0.00,40.00,18,10,24,0.00
2013-3-11,68,61,52,41,34,12,45,37,18,0.00,40.00,12,8,19,0.00
2013-3-12,69,62,55,48,41,29,61,47,32,0.00,40.00,8,6,12,0.00
2013-3-13,68,64,57,54,46,36,65,53,38,0.00,40.00,12,7,16,0.00
2013-3-14,70,63,56,54,45,31,68,53,33,0.00,40.00,11,6,19,0.00
2013-3-15,71,60,53,49,42,29,61,50,35,0.00,40.00,14,9,20,0.00
2013-3-16,70,58,52,50,42,36,75,56,34,0.00,40.00,18,11,31,0.00
2013-3-17,67,53,44,42,37,29,81,57,27,0.00,40.00,18,10,31,0.00
2013-3-18,66,56,46,48,40,29,67,56,39,0.00,40.00,18,7,22,0.00
2013-3-19,69,56,43,47,39,31,97,56,38,0.00,40.00,22,12,31,0.04
2013-3-20,56,51,49,51,46,43,100,84,69,0.00,40.00,23,17,33,0.07
2013-5-9,64,57,46,52,48,45,100,75,62,0.00,40.00,19,16,26,0.00
2013-5-10,74,59,46,57,46,-100,100,73,50,0.00,40.00,17,11,24,0.01
2013-5-11,90,76,62,59,48,-100,61,40,27,0.00,40.00,12,8,17,0.01
2013-5-12,83,74,64,55,48,33,46,40,28,0.00,40.00,17,11,22,0.00
2013-5-13,79,70,60,54,48,30,63,47,30,0.00,40.00,14,10,21,0.00
2013-5-14,68,59,46,54,47,42,91,64,47,0.00,40.00,20,13,31,0.00
2013-5-15,60,51,44,49,46,44,100,82,59,0.00,40.00,22,18,34,0.00
2013-5-16,63,50,47,55,34,-100,100,84,57,0.00,40.00,25,17,33,0.00
2013-5-17,62,51,45,49,43,-100,100,82,49,0.00,40.00,26,17,31,0.00
2013-5-18,71,57,44,50,47,44,100,73,41,0.00,40.00,17,12,27,0.00
2013-5-19,81,65,52,45,40,34,73,44,22,0.00,40.00,14,10,21,0.00
2013-5-20,87,73,61,42,34,29,35,25,17,0.00,40.00,18,13,26,0.00
2013-5-21,69,59,45,47,40,31,74,51,35,0.00,40.00,22,17,31,0.00
2013-5-22,65,51,40,38,31,20,75,51,19,0.00,40.00,17,11,24,0.00
2013-5-23,66,52,40,42,40,35,100,66,40,0.00,40.00,17,12,22,0.00
2013-5-24,65,54,43,42,39,35,98,62,33,0.00,40.00,23,12,29,0.00
2013-5-25,60,50,42,47,44,42,100,84,51,0.00,40.00,20,16,28,0.00
2013-5-26,67,54,46,53,49,46,100,84,52,0.00,40.00,21,16,30,0.00
2013-5-27,60,51,46,53,50,46,100,96,74,0.00,40.00,19,14,27,0.02
2013-5-28,67,56,51,60,53,49,100,89,60,0.00,40.00,16,13,24,0.05
2013-5-29,66,57,50,54,49,42,98,76,55,0.00,40.00,19,15,26,0.01
2013-5-30,74,60,48,48,43,36,89,57,33,0.00,40.00,15,10,21,0.00
2013-5-31,87,72,54,44,40,37,60,35,20,0.00,40.00,14,8,24,0.00
2013-6-1,95,80,63,46,42,38,45,28,18,0.00,40.00,13,8,21,0.00
2013-6-2,82,70,60,54,46,40,67,42,32,0.00,40.00,18,10,24,0.00
2013-6-3,73,64,51,52,49,44,86,59,44,0.00,40.00,18,13,24,0.00
2013-6-4,65,54,48,54,50,47,100,87,60,0.00,40.00,22,18,28,0.00
2013-6-5,70,56,47,55,49,47,100,82,49,0.00,40.00,23,16,31,0.00
2013-6-6,80,63,47,57,51,45,100,70,40,0.00,40.00,16,11,24,0.00
2013-6-7,97,82,62,59,52,29,64,38,13,0.00,40.00,15,10,22,0.00
2013-6-8,99,84,62,55,50,37,71,34,18,0.00,40.00,21,11,34,0.00
2013-6-9,69,57,51,56,53,50,100,87,60,0.00,40.00,27,20,37,0.00
2013-6-10,66,55,49,53,50,49,100,85,56,0.00,40.00,29,16,47,0.00
2013-6-11,76,59,49,56,50,45,100,76,42,0.00,40.00,15,10,21,0.00
2013-6-12,74,64,54,48,42,34,58,45,33,0.00,40.00,20,12,25,0.00
2013-6-13,79,63,51,47,41,36,66,46,27,0.00,40.00,17,10,27,0.00
2013-6-14,84,72,61,44,37,15,50,29,14,0.00,40.00,17,11,22,0.00
2013-6-15,71,62,52,51,44,16,76,53,14,0.00,40.00,18,13,25,0.00
2013-6-16,79,64,51,49,44,36,75,49,32,0.00,40.00,19,14,26,0.00
2013-6-17,72,60,51,53,48,43,100,67,49,0.00,40.00,19,14,26,0.00
2013-6-18,66,56,48,51,47,43,100,77,43,0.00,40.00,25,17,35,0.00
2013-6-19,74,58,47,47,44,41,96,63,37,0.00,40.00,18,12,25,0.00
2013-6-20,77,58,49,50,45,40,84,64,34,0.00,40.00,17,9,27,0.00
2013-6-22,85,75,61,49,44,39,56,35,22,0.00,40.00,18,12,24,0.00
2013-6-23,61,55,52,58,54,45,100,96,56,0.00,40.00,24,18,33,0.00
2013-6-24,58,56,53,58,56,53,100,100,100,0.00,40.00,20,14,26,0.05
2013-6-25,64,60,56,64,59,56,100,100,95,0.00,40.00,26,20,35,0.08
2013-6-26,79,67,58,68,59,55,100,81,49,0.00,40.00,16,10,23,0.01
2013-6-27,92,74,60,61,55,46,92,58,22,0.00,40.00,12,8,17,0.01
2013-6-28,98,89,71,57,50,43,57,28,17,0.00,40.00,16,11,27,0.00
2013-6-29,103,89,77,55,49,39,33,26,20,0.00,40.00,15,10,28,0.00
2013-6-30,95,86,75,57,51,44,38,30,23,0.00,40.00,13,10,22,0.00
2013-7-1,96,89,72,60,53,46,46,29,25,0.00,40.00,14,9,17,0.00
2013-7-2,95,83,71,55,52,47,53,35,25,0.00,40.00,30,14,42,0.00
2013-7-3,95,86,71,59,52,47,53,32,25,0.00,40.00,18,13,34,0.00
2013-7-4,97,85,73,57,51,41,47,32,25,0.00,40.00,16,12,29,0.00
2013-7-5,73,59,49,54,49,37,100,74,30,0.00,40.00,29,18,38,0.00
2013-7-6,75,58,50,55,51,49,100,82,45,0.00,40.00,23,16,35,0.00
2013-7-7,86,68,54,55,49,42,85,53,26,0.00,40.00,14,8,20,0.00
2013-7-8,87,70,58,53,47,40,78,48,19,0.00,40.00,16,12,23,0.00
2013-7-9,98,83,65,56,45,33,56,30,12,0.00,40.00,13,9,19,0.00
2013-7-10,86,74,59,46,38,-100,55,29,15,0.00,40.00,21,15,29,0.00
2013-7-11,75,61,49,54,49,42,95,66,43,0.00,40.00,17,14,26,0.00
2013-7-12,77,63,52,54,48,34,99,64,31,0.00,40.00,19,14,27,0.00
2013-7-13,88,77,62,48,43,38,54,31,22,0.00,40.00,16,11,22,0.00
2013-7-14,81,75,63,50,43,36,41,32,26,0.00,40.00,15,11,21,0.00
2013-7-15,69,57,47,52,48,36,100,76,36,0.00,40.00,21,15,28,0.00
2013-7-16,67,58,51,54,52,50,100,82,60,0.00,40.00,25,19,32,0.00
2013-7-17,77,62,51,60,52,45,100,75,42,0.00,40.00,19,12,26,0.00
2013-7-18,88,79,62,51,44,39,58,31,18,0.00,40.00,14,11,19,0.00
2013-7-19,89,83,72,54,48,39,45,30,24,0.00,40.00,15,9,20,0.00
2013-7-20,89,79,66,56,52,47,64,41,26,0.00,40.00,14,11,24,0.00
2013-7-21,83,76,66,55,50,45,64,41,28,0.00,40.00,29,20,39,0.00
2013-7-22,84,67,57,54,50,38,82,57,28,0.00,40.00,24,13,34,0.00
2013-7-23,82,70,62,52,46,39,64,44,26,0.00,40.00,15,11,26,0.00
2013-7-24,92,77,63,51,44,38,56,33,18,0.00,40.00,15,11,21,0.00
2013-7-25,85,75,65,52,47,36,49,38,31,0.00,40.00,17,11,23,0.00
2013-7-26,83,72,64,50,47,36,51,42,31,0.00,40.00,19,15,26,0.00
2013-7-27,82,71,59,55,49,42,63,47,32,0.00,40.00,22,14,29,0.00
2013-7-28,74,63,53,55,51,47,95,67,46,0.00,40.00,17,14,26,0.00
2013-7-29,70,56,50,57,51,49,100,86,51,0.00,40.00,21,16,30,0.00
2013-7-30,79,62,50,56,49,40,100,69,33,0.00,40.00,19,14,24,0.00
2013-7-31,73,60,49,54,49,44,100,72,39,0.00,40.00,20,14,27,0.00
2013-8-1,68,60,50,52,47,40,100,64,44,0.00,40.00,19,15,28,0.00
2013-8-2,79,66,56,53,46,38,69,51,33,0.00,40.00,16,10,21,0.00
2013-8-3,80,63,50,56,49,40,100,63,37,0.00,40.00,15,11,20,0.00
2013-8-4,77,58,49,56,51,45,100,80,38,0.00,40.00,18,13,26,0.00
2013-8-5,75,57,49,62,50,41,100,82,42,0.00,40.00,18,13,26,0.01
2013-8-6,67,55,49,55,51,47,100,88,56,0.00,40.00,26,19,33,0.01
2013-8-7,67,55,50,58,52,50,100,91,61,0.00,40.00,25,18,33,0.03
2013-8-8,71,57,50,60,53,48,100,89,53,0.00,40.00,20,14,26,0.02
2013-8-9,68,55,49,56,52,49,100,90,59,0.00,40.00,20,16,27,0.01
2013-8-10,71,59,51,60,53,51,100,85,53,0.00,40.00,20,15,26,0.02
2013-8-11,78,63,52,55,52,49,100,73,41,0.00,40.00,14,11,22,0.01
2013-8-12,81,67,54,53,47,41,81,51,29,0.00,40.00,16,11,22,0.00
2013-8-13,92,77,64,53,43,-100,45,32,23,0.00,40.00,15,10,20,0.00
2013-8-14,82,73,64,54,46,-100,68,45,30,0.00,40.00,16,13,22,0.00
2013-8-15,83,67,61,60,49,-100,83,64,44,0.00,40.00,17,12,22,0.00
2013-8-16,85,72,64,61,57,48,85,62,35,0.00,40.00,16,11,22,0.00
2013-8-17,76,69,64,53,47,-100,61,47,32,0.00,40.00,15,11,20,0.00
2013-8-18,92,83,66,56,51,46,58,36,21,0.00,40.00,10,8,17,0.00
2013-8-19,96,79,67,59,41,-100,45,32,24,0.00,40.00,19,8,28,0.00
2013-8-20,85,70,59,54,46,-100,62,45,30,0.00,40.00,20,15,29,0.00
2013-8-21,83,62,51,57,51,44,100,70,37,0.00,40.00,19,14,24,0.00
2013-8-22,73,59,51,55,51,42,100,76,45,0.00,40.00,21,16,27,0.00
2013-8-23,76,60,51,56,51,47,100,77,40,0.00,40.00,20,14,27,0.00
2013-8-24,75,62,54,57,50,-100,97,67,47,0.00,40.00,18,15,24,0.00
2013-8-25,79,63,55,66,58,53,100,85,50,0.00,40.00,23,14,31,0.01
2013-8-26,78,63,53,60,54,46,100,76,43,0.00,40.00,18,13,28,0.01
2013-8-27,81,66,61,54,48,46,59,53,39,0.00,40.00,10,6,15,0.00
2013-8-28,83,72,59,59,58,55,91,62,41,0.00,40.00,15,11,22,0.00
2013-8-29,84,66,56,63,58,55,100,78,39,0.00,40.00,15,11,21,0.01
2013-8-30,92,75,63,59,55,46,81,54,21,0.00,40.00,13,10,21,0.01
2013-8-31,82,71,60,52,46,-100,63,42,31,0.00,40.00,23,13,26,0.00
2013-9-1,82,66,57,56,52,46,84,62,36,0.00,40.00,17,13,22,0.00
2013-9-2,80,66,58,63,57,55,99,77,48,0.00,40.00,14,11,22,0.00
2013-9-3,77,64,57,56,51,48,94,65,37,0.00,40.00,18,13,23,0.00
2013-9-4,77,63,55,56,54,51,100,76,45,0.00,40.00,18,13,25,0.00
2013-9-5,77,63,54,55,53,49,100,74,37,0.00,40.00,18,13,24,0.00
2013-9-6,84,72,58,52,45,36,76,44,19,0.00,40.00,20,12,28,0.00
2013-9-7,95,80,74,44,39,-100,33,24,15,0.00,40.00,11,8,17,0.00
2013-9-8,93,84,71,48,42,38,31,23,15,0.00,40.00,15,8,19,0.00
2013-9-9,97,90,79,51,44,38,23,21,17,0.00,40.00,16,12,22,0.00
2013-9-10,75,66,56,56,54,46,100,68,50,0.00,40.00,20,16,25,0.00
2013-9-11,71,60,55,59,55,53,100,87,58,0.00,40.00,20,17,28,0.00
2013-9-12,78,62,56,63,57,52,100,84,51,0.00,40.00,20,12,24,0.00
2013-9-13,81,64,53,58,51,44,100,66,39,0.00,40.00,16,10,22,0.00
2013-9-14,71,59,52,58,49,-100,100,75,54,0.00,40.00,17,13,23,0.00
2013-9-15,77,61,51,56,52,47,100,76,44,0.00,40.00,18,15,26,0.00
2013-9-16,80,64,54,58,54,48,100,76,42,0.00,40.00,16,11,23,0.01
2013-9-17,72,60,52,54,51,47,100,76,42,0.00,40.00,21,15,32,0.01
2013-9-18,68,60,57,47,44,34,68,56,28,0.00,40.00,14,10,19,0.00
2013-9-19,86,75,65,42,35,28,37,24,14,0.00,40.00,13,7,17,0.00
2013-9-20,67,60,54,59,55,51,95,84,70,0.00,40.00,26,19,33,0.00
2013-9-21,59,55,51,57,52,-100,100,94,81,0.00,40.00,26,17,34,1.02
2013-9-22,69,57,50,54,50,47,100,81,48,0.00,40.00,13,8,20,0.01
2013-9-23,76,63,53,54,50,46,80,64,39,0.00,40.00,13,8,19,0.01
2013-9-24,72,61,52,55,50,45,92,69,43,0.00,40.00,19,13,29,0.00
2013-9-25,67,55,49,45,42,39,83,65,39,0.00,40.00,16,12,28,0.00
2013-9-26,70,57,48,42,36,31,77,49,24,0.00,40.00,14,10,20,0.00
2013-9-27,71,62,55,33,31,27,39,31,20,0.00,40.00,14,11,24,0.00
2013-9-28,81,70,59,50,32,-100,71,28,17,0.00,40.00,13,8,20,0.00
2013-9-29,71,60,53,58,54,47,100,83,56,0.00,40.00,17,12,24,0.00
2013-9-30,71,61,57,63,58,56,100,92,65,0.00,40.00,17,14,24,0.04
2013-10-1,70,62,58,46,45,43,65,55,43,0.00,40.00,10,7,14,0.00
2013-10-2,73,62,53,49,43,37,68,51,37,0.00,40.00,16,10,24,0.00
2013-10-3,65,57,49,37,30,21,60,39,19,0.00,40.00,40,15,50,0.00
2013-10-4,71,63,55,26,23,19,28,22,16,0.00,40.00,40,27,54,0.00
2013-10-5,75,67,59,27,21,15,20,17,14,0.00,40.00,24,15,32,0.00
2013-10-6,76,73,68,37,30,23,24,20,18,0.00,40.00,9,6,13,0.00
2013-10-7,83,72,61,34,26,21,32,19,12,0.00,40.00,13,9,19,0.00
2013-10-8,75,64,54,41,36,33,51,37,30,0.00,40.00,17,10,22,0.00
2013-10-9,67,54,44,47,42,32,100,66,37,0.00,40.00,15,10,21,0.00
2013-10-10,71,61,53,43,37,31,66,41,31,0.00,40.00,13,9,19,0.00
2013-10-11,69,58,50,51,44,37,86,61,41,0.00,40.00,13,6,15,0.00
2013-10-12,69,59,51,47,38,-100,71,50,37,0.00,40.00,15,10,25,0.00
2013-10-13,67,57,49,44,39,31,81,54,29,0.00,40.00,13,8,21,0.00
2013-10-14,69,62,57,35,32,29,40,32,23,0.00,40.00,21,12,27,0.00
2013-10-15,71,64,57,33,29,26,34,27,20,0.00,40.00,25,15,35,0.00
2013-10-18,78,70,64,37,32,22,31,25,20,0.00,40.00,11,6,17,0.00
2013-10-19,76,68,61,40,34,-100,39,30,24,0.00,40.00,15,7,16,0.00
2013-10-20,83,72,63,43,38,34,39,30,24,0.00,40.00,11,6,14,0.00
2013-10-21,73,69,64,46,41,34,43,36,31,0.00,40.00,9,5,13,0.00
2013-10-22,74,69,62,46,43,38,46,40,33,0.00,40.00,13,7,16,0.00
2013-10-23,79,70,57,48,43,38,51,38,27,0.00,40.00,10,6,14,0.00
2013-10-24,59,52,45,48,44,37,98,75,48,0.00,40.00,19,10,25,0.00
2013-10-25,67,56,45,48,44,38,99,67,39,0.00,40.00,14,8,20,0.00
2013-10-26,72,66,60,44,37,-100,50,35,31,0.00,40.00,10,6,12,0.00
2013-10-27,65,50,45,48,44,33,100,84,31,0.00,40.00,38,26,54,0.00
2013-10-28,58,48,43,46,44,39,99,86,57,0.00,40.00,26,15,46,0.00
2013-10-29,58,50,46,47,45,40,100,84,57,0.00,40.00,20,11,26,0.00
2013-10-30,61,53,47,46,43,39,86,69,49,0.00,40.00,9,6,15,0.00
2013-10-31,65,59,52,43,39,38,65,49,38,0.00,40.00,12,7,18,0.00
2013-11-1,66,61,54,45,41,39,58,47,41,0.00,40.00,14,8,19,0.00
2013-11-2,72,61,50,49,40,-100,81,50,34,0.00,40.00,16,9,21,0.00
2013-11-3,57,52,48,43,31,21,78,48,26,0.00,40.00,13,9,18,0.00
2013-11-4,62,54,44,34,25,18,69,36,19,0.00,40.00,16,12,27,0.00
2013-11-5,64,58,52,31,28,25,36,32,28,0.00,40.00,18,10,22,0.00
2013-11-6,63,60,56,36,32,26,41,34,27,0.00,40.00,15,9,17,0.00
2013-11-7,75,64,58,43,34,28,53,34,21,0.00,40.00,10,6,15,0.00
2013-11-8,74,63,56,47,42,39,63,48,34,0.00,40.00,10,8,16,0.00
2013-11-9,65,59,53,44,40,-100,63,52,36,0.00,40.00,16,8,20,0.00
2013-11-10,67,59,51,50,44,37,77,59,44,0.00,40.00,9,5,12,0.00
2013-11-11,64,57,48,50,43,36,98,61,45,0.00,40.00,9,5,16,0.00
2013-11-12,66,60,53,45,42,35,72,52,39,0.00,40.00,11,7,14,0.00
2013-11-13,77,65,57,48,42,34,65,44,27,0.00,40.00,15,8,19,0.00
2013-11-14,71,59,51,50,44,34,70,58,47,0.00,40.00,17,9,31,0.00
2013-11-15,63,52,44,39,34,28,74,52,36,0.00,40.00,16,9,34,0.00
2013-11-16,62,49,42,47,41,-100,99,79,44,0.00,40.00,21,12,28,0.00
2013-11-17,62,51,44,49,45,40,100,82,52,0.00,40.00,12,8,19,0.00
2013-11-18,57,48,44,46,43,41,99,84,62,0.00,40.00,18,10,24,0.00
2013-11-19,54,50,45,52,49,45,100,95,82,0.00,40.00,23,14,31,0.44
2013-11-20,53,51,48,53,51,48,100,100,96,0.00,40.00,18,12,28,0.84
2013-11-21,53,48,44,48,33,17,100,65,26,0.00,40.00,35,19,56,0.08
2013-11-22,60,52,45,22,12,7,32,21,14,0.00,40.00,35,29,49,0.02
2013-11-23,60,50,46,42,28,-100,80,45,31,0.00,40.00,25,13,33,0.00
2013-11-24,55,51,45,42,38,31,82,63,50,0.00,40.00,10,5,12,0.00
2013-11-25,54,51,47,43,39,33,79,63,51,0.00,40.00,12,7,14,0.00
2013-11-26,53,50,45,42,38,34,77,63,55,0.00,40.00,14,10,18,0.00
2013-11-27,53,51,49,46,42,39,78,70,61,0.00,40.00,12,8,14,0.00
2013-11-28,61,55,51,41,37,36,68,51,42,0.00,40.00,16,10,21,0.00
2013-11-29,63,58,55,43,38,34,55,48,41,0.00,40.00,11,5,16,0.00
2013-11-30,63,57,54,39,35,-100,53,45,36,0.00,40.00,8,5,11,0.00
2013-12-1,62,58,54,41,39,36,60,49,41,0.00,40.00,14,9,18,0.00
2013-12-2,65,56,49,50,44,37,100,66,35,0.00,40.00,16,11,24,0.00
2013-12-3,50,44,40,50,33,15,100,68,35,0.00,40.00,27,14,36,0.00
2013-12-4,44,38,34,20,13,5,55,36,25,0.00,40.00,14,10,26,0.00
2013-12-5,42,37,32,29,11,6,76,35,27,0.00,40.00,15,8,20,0.00
2013-12-6,48,39,34,43,32,26,100,75,44,0.00,40.00,36,15,48,0.70
2013-12-7,42,36,32,42,27,-100,100,76,50,0.00,40.00,21,12,48,0.74
2013-12-8,35,31,28,26,17,8,82,56,36,0.00,40.00,27,18,34,0.00
2013-12-9,41,36,31,19,10,3,45,35,28,0.00,40.00,35,21,49,0.00
2013-12-10,47,40,32,25,20,14,70,46,28,0.00,40.00,24,13,27,0.00
2013-12-11,47,43,35,29,22,14,65,42,31,0.00,40.00,18,13,21,0.00
2013-12-12,56,48,41,33,28,17,53,45,30,0.00,40.00,13,7,17,0.00
2013-12-13,54,49,42,33,28,21,70,45,28,0.00,40.00,16,9,18,0.00
2013-12-14,53,48,45,35,28,-100,55,47,35,0.00,40.00,19,14,25,0.00
2013-12-15,55,50,45,35,28,20,60,43,26,0.00,40.00,16,12,21,0.00
2013-12-16,61,55,50,31,26,20,37,33,24,0.00,40.00,23,15,28,0.00
2013-12-17,60,58,55,35,31,24,44,37,29,0.00,40.00,12,10,17,0.00
2013-12-18,63,53,44,44,33,23,100,55,27,0.00,40.00,20,12,31,0.00
2013-12-19,52,44,38,40,29,12,93,59,28,0.00,40.00,20,14,31,0.00
2013-12-20,54,49,42,27,13,8,39,23,16,0.00,40.00,16,9,21,0.00
2013-12-21,60,51,45,46,36,-100,92,61,33,0.00,40.00,15,9,18,0.00
2013-12-22,58,53,48,38,33,30,51,46,41,0.00,40.00,23,18,31,0.00
2013-12-23,61,53,51,38,34,31,55,49,38,0.00,40.00,20,12,24,0.00
2013-12-24,60,56,51,38,34,27,55,42,31,0.00,40.00,24,17,32,0.00
2013-12-25,57,53,47,40,32,24,62,47,31,0.00,40.00,30,16,36,0.00
2013-12-26,60,56,52,34,30,21,44,37,22,0.00,40.00,16,12,18,0.00
2013-12-27,58,52,49,40,31,26,65,45,32,0.00,40.00,12,9,15,0.00
2013-12-28,58,53,47,30,22,-100,51,31,23,0.00,40.00,26,16,33,0.00
2013-12-29,56,53,50,27,18,10,37,25,18,0.00,40.00,32,20,39,0.00
2013-12-30,63,56,51,36,29,24,44,37,32,0.00,40.00,9,5,13,0.00
2013-12-31,57,53,49,32,26,20,50,35,25,0.00,40.00,17,11,22,0.00
2014-1-1,60,57,54,27,23,20,32,27,23,0.00,40.00,18,13,25,0.00
2014-1-2,60,56,48,35,28,23,48,36,25,0.00,40.00,17,13,21,0.00